| time (UTC) | temp F | wind direction | speed knots | gust knots | rain 1hr in | rain 24hr in | rain mn in | humidity % | barometer mb |
| 20260506051355 | 40 | 360 | 3.5 | 4.3 | 0.00 | 0.00 | 0.00 | 82 | 1015.1 |
| 20260506050857 | 40 | 345 | 0.0 | 3.5 | 0.00 | 0.00 | 0.00 | 82 | 1015.2 |
| 20260506050354 | 40 | 344 | 1.7 | 3.5 | 0.00 | 0.00 | 0.00 | 82 | 1015.1 |
| 20260506044848 | 40 | 347 | 0.9 | 4.3 | 0.00 | 0.00 | 0.00 | 82 | 1015.2 |
| 20260506044344 | 40 | 355 | 2.6 | 5.2 | 0.00 | 0.00 | 0.00 | 82 | 1015.2 |
| 20260506043848 | 40 | 5 | 4.3 | 5.2 | 0.00 | 0.00 | 0.00 | 82 | 1015.1 |
| 20260506043401 | 40 | 5 | 2.6 | 3.5 | 0.00 | 0.00 | 0.00 | 82 | 1015.2 |
| 20260506042840 | 40 | 344 | 1.7 | 4.3 | 0.00 | 0.00 | 0.00 | 83 | 1015.2 |
| 20260506042343 | 40 | 337 | 3.5 | 5.2 | 0.00 | 0.00 | 0.00 | 83 | 1015.3 |
| 20260506041844 | 40 | 350 | 3.5 | 5.2 | 0.00 | 0.00 | 0.00 | 83 | 1015.3 |
| 20260506041339 | 40 | 5 | 2.6 | 4.3 | 0.00 | 0.00 | 0.00 | 83 | 1015.2 |
| 20260506040855 | 40 | 348 | 1.7 | 2.6 | 0.00 | 0.00 | 0.00 | 83 | 1015.4 |
| 20260506040349 | 40 | 344 | 0.0 | 1.7 | 0.00 | 0.00 | 0.00 | 83 | 1015.3 |
| 20260506035847 | 40 | 344 | 0.0 | 1.7 | 0.00 | 0.00 | 0.00 | 83 | 1015.4 |
| 20260506035351 | 40 | 344 | 0.0 | 4.3 | 0.00 | 0.00 | 0.00 | 83 | 1015.4 |
| 20260506034851 | 40 | 344 | 1.7 | 4.3 | 0.00 | 0.00 | 0.00 | 83 | 1015.4 |
| 20260506034341 | 40 | 344 | 2.6 | 3.5 | 0.00 | 0.00 | 0.00 | 83 | 1015.4 |
| 20260506033840 | 40 | 344 | 0.9 | 2.6 | 0.00 | 0.00 | 0.00 | 83 | 1015.5 |
| 20260506033341 | 40 | 344 | 0.9 | 2.6 | 0.00 | 0.00 | 0.00 | 83 | 1015.5 |
| 20260506032858 | 40 | 344 | 0.9 | 4.3 | 0.00 | 0.00 | 0.00 | 83 | 1015.6 |
| 20260506032354 | 40 | 346 | 2.6 | 4.3 | 0.00 | 0.00 | 0.00 | 83 | 1015.6 |
| 20260506031858 | 40 | 355 | 2.6 | 3.5 | 0.00 | 0.00 | 0.00 | 83 | 1015.5 |
| 20260506031349 | 40 | 355 | 1.7 | 3.5 | 0.00 | 0.00 | 0.00 | 83 | 1015.6 |
| 20260506030846 | 40 | 355 | 1.7 | 4.3 | 0.00 | 0.00 | 0.00 | 83 | 1015.6 |
| 20260506030340 | 40 | 355 | 2.6 | 4.3 | 0.00 | 0.00 | 0.00 | 83 | 1015.6 |
| 20260506025857 | 40 | 360 | 3.5 | 5.2 | 0.00 | 0.00 | 0.00 | 83 | 1015.6 |
| 20260506025400 | 40 | 5 | 3.5 | 5.2 | 0.00 | 0.00 | 0.00 | 83 | 1015.6 |
| 20260506024846 | 40 | 5 | 3.5 | 4.3 | 0.00 | 0.00 | 0.00 | 83 | 1015.6 |
| 20260506024342 | 40 | 5 | 3.5 | 4.3 | 0.00 | 0.00 | 0.00 | 83 | 1015.6 |
| 20260506023838 | 40 | 5 | 3.5 | 4.3 | 0.00 | 0.00 | 0.00 | 83 | 1015.6 |
| 20260506023343 | 40 | 355 | 3.5 | 4.3 | 0.00 | 0.00 | 0.00 | 83 | 1015.7 |
| 20260506022838 | 41 | 355 | 3.5 | 5.2 | 0.00 | 0.00 | 0.00 | 83 | 1015.7 |
| 20260506022340 | 41 | 355 | 3.5 | 5.2 | 0.00 | 0.00 | 0.00 | 83 | 1015.7 |
| 20260506021848 | 41 | 5 | 3.5 | 5.2 | 0.00 | 0.00 | 0.00 | 83 | 1015.6 |
| 20260506021340 | 41 | 350 | 4.3 | 5.2 | 0.00 | 0.00 | 0.00 | 82 | 1015.6 |
| 20260506020842 | 41 | 355 | 4.3 | 5.2 | 0.00 | 0.00 | 0.00 | 82 | 1015.7 |
| 20260506020340 | 41 | 19 | 3.5 | 7.0 | 0.00 | 0.00 | 0.00 | 82 | 1015.7 |
| 20260506015924 | 41 | 23 | 3.5 | 7.0 | 0.00 | 0.00 | 0.00 | 82 | 1015.7 |
| 20260506015342 | 41 | 360 | 4.3 | 5.2 | 0.00 | 0.00 | 0.00 | 82 | 1015.7 |
| 20260506014840 | 41 | 360 | 4.3 | 5.2 | 0.00 | 0.00 | 0.00 | 82 | 1015.8 |
| 20260506014348 | 41 | 360 | 3.5 | 5.2 | 0.00 | 0.00 | 0.00 | 82 | 1015.8 |
| 20260506013905 | 41 | 5 | 4.3 | 5.2 | 0.00 | 0.00 | 0.00 | 82 | 1015.9 |
| 20260506013348 | 42 | 355 | 3.5 | 7.0 | 0.00 | 0.00 | 0.00 | 82 | 1015.9 |
| 20260506012844 | 42 | 360 | 4.3 | 7.0 | 0.00 | 0.00 | 0.00 | 82 | 1016.0 |
| 20260506012341 | 42 | 355 | 4.3 | 7.0 | 0.00 | 0.00 | 0.00 | 82 | 1016.0 |
| 20260506011903 | 42 | 355 | 3.5 | 7.8 | 0.00 | 0.00 | 0.00 | 82 | 1016.0 |
| 20260506011340 | 42 | 355 | 5.2 | 7.8 | 0.00 | 0.00 | 0.00 | 82 | 1016.0 |
| 20260506010858 | 42 | 355 | 5.2 | 8.7 | 0.00 | 0.00 | 0.00 | 82 | 1016.1 |
| 20260506010352 | 42 | 355 | 6.1 | 8.7 | 0.00 | 0.00 | 0.00 | 82 | 1016.1 |
| 20260506005848 | 42 | 5 | 6.1 | 8.7 | 0.00 | 0.00 | 0.00 | 82 | 1016.1 |
| 20260506005350 | 42 | 351 | 6.1 | 8.7 | 0.00 | 0.00 | 0.00 | 82 | 1016.1 |
| 20260506004847 | 42 | 5 | 6.1 | 8.7 | 0.00 | 0.00 | 0.00 | 82 | 1016.0 |
| 20260506004403 | 42 | 360 | 5.2 | 8.7 | 0.00 | 0.00 | 0.00 | 82 | 1016.1 |
| 20260506003901 | 42 | 360 | 7.8 | 10.4 | 0.00 | 0.00 | 0.00 | 81 | 1016.1 |
| 20260506003355 | 42 | 360 | 7.0 | 10.4 | 0.00 | 0.00 | 0.00 | 81 | 1016.1 |
| 20260506002905 | 43 | 5 | 7.0 | 9.6 | 0.00 | 0.00 | 0.00 | 81 | 1016.0 |
| 20260506002350 | 43 | 360 | 7.0 | 10.4 | 0.00 | 0.00 | 0.00 | 81 | 1016.0 |
| 20260506001922 | 43 | 343 | 7.8 | 11.3 | 0.00 | 0.00 | 0.00 | 81 | 1016.0 |
| 20260506001412 | 43 | 16 | 7.0 | 11.3 | 0.00 | 0.00 | 0.00 | 81 | 1016.0 |
| 20260506000851 | 43 | 355 | 7.0 | 10.4 | 0.00 | 0.00 | 0.00 | 81 | 1015.9 |
| 20260506000346 | 43 | 11 | 7.8 | 10.4 | 0.00 | 0.00 | 0.00 | 81 | 1015.9 |
| 20260505235844 | 43 | 360 | 7.8 | 9.6 | 0.00 | 0.00 | 0.00 | 81 | 1015.9 |
| 20260505235344 | 43 | 355 | 7.8 | 9.6 | 0.00 | 0.00 | 0.00 | 81 | 1015.9 |
| 20260505234840 | 44 | 12 | 7.8 | 10.4 | 0.00 | 0.00 | 0.00 | 82 | 1015.9 |
| 20260505234354 | 44 | 355 | 7.0 | 10.4 | 0.00 | 0.00 | 0.00 | 82 | 1015.9 |
| 20260505233855 | 44 | 355 | 7.8 | 9.6 | 0.00 | 0.00 | 0.00 | 82 | 1016.0 |
| 20260505233350 | 44 | 360 | 7.8 | 9.6 | 0.00 | 0.00 | 0.00 | 83 | 1016.0 |
| 20260505232845 | 44 | 5 | 5.2 | 7.8 | 0.00 | 0.00 | 0.00 | 83 | 1016.0 |
| 20260505232348 | 44 | 344 | 4.3 | 7.8 | 0.00 | 0.00 | 0.00 | 83 | 1016.1 |
| 20260505231844 | 44 | 355 | 5.2 | 7.8 | 0.00 | 0.00 | 0.00 | 83 | 1016.1 |
| 20260505231358 | 44 | 355 | 5.2 | 7.8 | 0.00 | 0.00 | 0.00 | 83 | 1016.1 |
| 20260505230854 | 44 | 360 | 6.1 | 10.4 | 0.00 | 0.00 | 0.00 | 83 | 1016.1 |
| 20260505230415 | 44 | 360 | 8.7 | 12.2 | 0.00 | 0.00 | 0.00 | 83 | 1016.0 |
| 20260505225842 | 44 | 18 | 8.7 | 12.2 | 0.00 | 0.00 | 0.00 | 84 | 1016.1 |
| 20260505225406 | 44 | 5 | 5.2 | 12.2 | 0.00 | 0.00 | 0.00 | 84 | 1016.0 |
| 20260505224848 | 44 | 15 | 7.8 | 12.2 | 0.00 | 0.00 | 0.00 | 84 | 1016.0 |
| 20260505224341 | 44 | 5 | 5.2 | 7.0 | 0.00 | 0.00 | 0.00 | 85 | 1016.0 |
| 20260505223842 | 44 | 355 | 3.5 | 4.3 | 0.00 | 0.00 | 0.00 | 84 | 1016.0 |
| 20260505223341 | 44 | 351 | 2.6 | 3.5 | 0.00 | 0.00 | 0.00 | 84 | 1016.1 |
| 20260505222856 | 44 | 15 | 2.6 | 3.5 | 0.00 | 0.00 | 0.00 | 84 | 1016.0 |
| 20260505222418 | 44 | 15 | 2.6 | 5.2 | 0.00 | 0.00 | 0.00 | 84 | 1016.0 |
| 20260505221853 | 44 | 21 | 2.6 | 5.2 | 0.00 | 0.00 | 0.00 | 83 | 1016.0 |
| 20260505221349 | 44 | 5 | 2.6 | 3.5 | 0.00 | 0.00 | 0.00 | 83 | 1015.9 |
| 20260505220914 | 44 | 311 | 0.9 | 1.7 | 0.00 | 0.00 | 0.00 | 83 | 1016.0 |
| 20260505220345 | 44 | 311 | 0.9 | 1.7 | 0.00 | 0.00 | 0.00 | 83 | 1015.9 |
| 20260505215910 | 44 | 311 | 0.0 | 1.7 | 0.00 | 0.00 | 0.00 | 82 | 1015.9 |
| 20260505215347 | 44 | 270 | 0.0 | 1.7 | 0.00 | 0.00 | 0.00 | 82 | 1015.8 |
| 20260505214924 | 44 | 270 | 0.0 | 1.7 | 0.00 | 0.00 | 0.00 | 81 | 1015.9 |
| 20260505214343 | 44 | 270 | 0.0 | 0.9 | 0.00 | 0.00 | 0.00 | 81 | 1015.8 |
| 20260505213851 | 45 | 284 | 0.0 | 0.9 | 0.00 | 0.00 | 0.00 | 80 | 1015.8 |
| 20260505213341 | 45 | 284 | 0.0 | 1.7 | 0.00 | 0.00 | 0.00 | 79 | 1015.7 |
| 20260505212901 | 45 | 284 | 0.9 | 1.7 | 0.00 | 0.00 | 0.00 | 79 | 1015.7 |
| 20260505212339 | 45 | 284 | 0.0 | 0.9 | 0.00 | 0.00 | 0.00 | 79 | 1015.8 |
| 20260505211841 | 45 | 284 | 0.0 | 0.9 | 0.00 | 0.00 | 0.00 | 79 | 1015.8 |
| 20260505211349 | 46 | 284 | 0.0 | 0.9 | 0.00 | 0.00 | 0.00 | 79 | 1015.8 |
| 20260505210851 | 46 | 284 | 0.0 | 0.9 | 0.00 | 0.00 | 0.00 | 78 | 1015.8 |
| 20260505210351 | 46 | 284 | 0.0 | 1.7 | 0.00 | 0.00 | 0.00 | 78 | 1015.9 |
| 20260505205844 | 46 | 273 | 0.0 | 1.7 | 0.00 | 0.00 | 0.00 | 77 | 1015.8 |
| 20260505205349 | 47 | 254 | 0.0 | 0.9 | 0.00 | 0.00 | 0.00 | 77 | 1015.9 |
| 20260505204917 | 47 | 254 | 0.0 | 0.9 | 0.00 | 0.00 | 0.00 | 77 | 1015.8 |
| 20260505204349 | 47 | 254 | 0.0 | 2.6 | 0.00 | 0.00 | 0.00 | 77 | 1015.8 |
| 20260505203850 | 47 | 262 | 0.9 | 2.6 | 0.00 | 0.00 | 0.00 | 76 | 1015.8 |
| 20260505203353 | 47 | 266 | 1.7 | 2.6 | 0.00 | 0.00 | 0.00 | 76 | 1015.8 |
| 20260505202849 | 48 | 345 | 1.7 | 2.6 | 0.00 | 0.00 | 0.00 | 76 | 1015.8 |
| 20260505202350 | 48 | 345 | 0.9 | 1.7 | 0.00 | 0.00 | 0.00 | 76 | 1015.8 |
| 20260505201840 | 48 | 345 | 0.0 | 1.7 | 0.00 | 0.00 | 0.00 | 76 | 1015.8 |
| 20260505201341 | 48 | 345 | 0.0 | 1.7 | 0.00 | 0.00 | 0.00 | 75 | 1015.8 |
| 20260505200857 | 49 | 345 | 0.0 | 0.9 | 0.00 | 0.00 | 0.00 | 75 | 1015.7 |
| 20260505200352 | 49 | 345 | 0.0 | 0.9 | 0.00 | 0.00 | 0.00 | 74 | 1015.7 |
| 20260505195911 | 49 | 345 | 0.0 | 1.7 | 0.00 | 0.00 | 0.00 | 74 | 1015.7 |
| 20260505195347 | 50 | 345 | 0.0 | 1.7 | 0.00 | 0.00 | 0.00 | 74 | 1015.7 |
| 20260505194838 | 50 | 345 | 0.0 | 1.7 | 0.00 | 0.00 | 0.00 | 74 | 1015.7 |
| 20260505194424 | 50 | 345 | 0.0 | 1.7 | 0.00 | 0.00 | 0.00 | 75 | 1015.6 |
| 20260505193859 | 50 | 345 | 0.0 | 1.7 | 0.00 | 0.00 | 0.00 | 75 | 1015.6 |
| 20260505193354 | 50 | 345 | 0.0 | 1.7 | 0.00 | 0.00 | 0.00 | 75 | 1015.7 |
| 20260505192851 | 50 | 345 | 0.0 | 0.9 | 0.00 | 0.00 | 0.00 | 75 | 1015.7 |
| 20260505192404 | 50 | 345 | 0.0 | 0.9 | 0.00 | 0.00 | 0.00 | 76 | 1015.6 |
| 20260505191901 | 50 | 345 | 0.0 | 1.7 | 0.00 | 0.00 | 0.00 | 76 | 1015.6 |
| 20260505191358 | 51 | 345 | 0.0 | 4.3 | 0.00 | 0.00 | 0.00 | 75 | 1015.5 |
| 20260505190900 | 51 | 355 | 2.6 | 4.3 | 0.00 | 0.00 | 0.00 | 75 | 1015.5 |
| 20260505190400 | 51 | 355 | 1.7 | 3.5 | 0.00 | 0.00 | 0.00 | 75 | 1015.5 |
| 20260505185859 | 52 | 355 | 2.6 | 5.2 | 0.00 | 0.00 | 0.00 | 74 | 1015.4 |
| 20260505185357 | 52 | 355 | 3.5 | 7.0 | 0.00 | 0.00 | 0.00 | 74 | 1015.5 |
| 20260505184847 | 52 | 345 | 4.3 | 7.0 | 0.00 | 0.00 | 0.00 | 73 | 1015.5 |
| 20260505184429 | 52 | 347 | 4.3 | 7.8 | 0.00 | 0.00 | 0.00 | 74 | 1015.5 |
| 20260505183857 | 52 | 350 | 5.2 | 7.8 | 0.00 | 0.00 | 0.00 | 73 | 1015.4 |
| 20260505183351 | 52 | 355 | 4.3 | 7.0 | 0.00 | 0.00 | 0.00 | 73 | 1015.5 |
| 20260505182846 | 52 | 346 | 4.3 | 7.0 | 0.00 | 0.00 | 0.00 | 73 | 1015.4 |
| 20260505182348 | 52 | 355 | 4.3 | 7.0 | 0.00 | 0.00 | 0.00 | 74 | 1015.5 |
| 20260505181900 | 52 | 9 | 4.3 | 7.0 | 0.00 | 0.00 | 0.00 | 74 | 1015.5 |
| 20260505181400 | 53 | 355 | 2.6 | 7.0 | 0.00 | 0.00 | 0.00 | 75 | 1015.5 |
| 20260505180850 | 53 | 347 | 3.5 | 7.0 | 0.00 | 0.00 | 0.00 | 73 | 1015.5 |
| 20260505180352 | 53 | 350 | 3.5 | 7.0 | 0.00 | 0.00 | 0.00 | 73 | 1015.5 |
| 20260505175843 | 53 | 360 | 3.5 | 8.7 | 0.00 | 0.00 | 0.00 | 73 | 1015.5 |
| 20260505175400 | 53 | 355 | 3.5 | 8.7 | 0.00 | 0.00 | 0.00 | 73 | 1015.6 |
| 20260505174841 | 53 | 355 | 4.3 | 7.8 | 0.00 | 0.00 | 0.00 | 72 | 1015.6 |
| 20260505174404 | 53 | 360 | 5.2 | 7.8 | 0.00 | 0.00 | 0.00 | 73 | 1015.5 |
| 20260505173914 | 53 | 355 | 5.2 | 7.8 | 0.00 | 0.00 | 0.00 | 73 | 1015.5 |
| 20260505173349 | 53 | 5 | 6.1 | 7.8 | 0.00 | 0.00 | 0.00 | 72 | 1015.5 |
| 20260505172848 | 53 | 355 | 3.5 | 7.0 | 0.00 | 0.00 | 0.00 | 74 | 1015.6 |
| 20260505172347 | 53 | 347 | 4.3 | 7.0 | 0.00 | 0.00 | 0.00 | 74 | 1015.6 |
| 20260505171850 | 53 | 360 | 4.3 | 7.0 | 0.00 | 0.00 | 0.00 | 73 | 1015.7 |
| 20260505171347 | 53 | 360 | 3.5 | 7.0 | 0.00 | 0.00 | 0.00 | 74 | 1015.6 |
| 20260505170902 | 54 | 17 | 4.3 | 7.8 | 0.00 | 0.00 | 0.00 | 73 | 1015.8 |
| 20260505170342 | 54 | 355 | 3.5 | 8.7 | 0.00 | 0.00 | 0.00 | 71 | 1015.7 |
| 20260505165843 | 54 | 346 | 6.1 | 8.7 | 0.00 | 0.00 | 0.00 | 72 | 1015.7 |
| 20260505165351 | 55 | 22 | 5.2 | 7.8 | 0.00 | 0.00 | 0.00 | 72 | 1015.8 |
| 20260505164851 | 54 | 12 | 4.3 | 9.6 | 0.00 | 0.00 | 0.00 | 74 | 1015.8 |
| 20260505164356 | 54 | 10 | 7.0 | 9.6 | 0.00 | 0.00 | 0.00 | 73 | 1015.8 |
| 20260505163848 | 54 | 24 | 4.3 | 7.8 | 0.00 | 0.00 | 0.00 | 73 | 1015.8 |
| 20260505163342 | 54 | 5 | 4.3 | 8.7 | 0.00 | 0.00 | 0.00 | 74 | 1015.8 |
| 20260505162857 | 54 | 338 | 4.3 | 8.7 | 0.00 | 0.00 | 0.00 | 74 | 1015.8 |
| 20260505162349 | 54 | 30 | 5.2 | 7.8 | 0.00 | 0.00 | 0.00 | 72 | 1015.9 |
| 20260505161849 | 54 | 24 | 6.1 | 9.6 | 0.00 | 0.00 | 0.00 | 73 | 1015.9 |
| 20260505161347 | 54 | 17 | 5.2 | 9.6 | 0.00 | 0.00 | 0.00 | 73 | 1015.8 |
| 20260505160845 | 54 | 360 | 5.2 | 7.8 | 0.00 | 0.00 | 0.00 | 73 | 1015.9 |
| 20260505160341 | 54 | 355 | 6.1 | 8.7 | 0.00 | 0.00 | 0.00 | 73 | 1015.9 |
| 20260505152912 | 53 | 5 | 7.8 | 11.3 | 0.00 | 0.00 | 0.00 | 73 | 1015.9 |
| 20260505152346 | 53 | 348 | 9.6 | 12.2 | 0.00 | 0.00 | 0.00 | 73 | 1015.9 |
| 20260505151848 | 53 | 360 | 8.7 | 12.2 | 0.00 | 0.00 | 0.00 | 73 | 1015.9 |
| 20260505151347 | 53 | 16 | 10.4 | 12.2 | 0.00 | 0.00 | 0.00 | 73 | 1015.9 |
| 20260505150907 | 53 | 355 | 8.7 | 13.0 | 0.00 | 0.00 | 0.00 | 75 | 1015.9 |
| 20260505150405 | 53 | 22 | 8.7 | 16.5 | 0.00 | 0.00 | 0.00 | 74 | 1015.9 |
| 20260505140341 | 56 | 20 | 4.3 | 8.7 | 0.00 | 0.00 | 0.00 | 71 | 1016.0 |
| 20260505124845 | 52 | 32 | 7.8 | 10.4 | 0.00 | 0.00 | 0.00 | 77 | 1016.0 |
| 20260505124344 | 51 | 22 | 8.7 | 10.4 | 0.00 | 0.00 | 0.00 | 77 | 1016.1 |
| 20260505123843 | 51 | 13 | 7.8 | 10.4 | 0.00 | 0.00 | 0.00 | 78 | 1016.1 |
| 20260505123346 | 51 | 355 | 7.8 | 10.4 | 0.00 | 0.00 | 0.00 | 77 | 1016.0 |
| 20260505122842 | 51 | 5 | 7.0 | 11.3 | 0.00 | 0.00 | 0.00 | 76 | 1016.0 |
| 20260505122354 | 51 | 355 | 8.7 | 11.3 | 0.00 | 0.00 | 0.00 | 76 | 1016.1 |
| 20260505121850 | 51 | 360 | 7.8 | 11.3 | 0.00 | 0.00 | 0.00 | 75 | 1016.1 |
| 20260505121349 | 51 | 348 | 7.0 | 11.3 | 0.00 | 0.00 | 0.00 | 75 | 1016.1 |
| 20260505120845 | 52 | 355 | 5.2 | 8.7 | 0.00 | 0.00 | 0.00 | 77 | 1016.1 |
| 20260505120339 | 52 | 339 | 2.6 | 6.1 | 0.00 | 0.00 | 0.00 | 74 | 1016.0 |
| 20260505115843 | 52 | 263 | 2.6 | 3.5 | 0.00 | 0.00 | 0.00 | 72 | 1016.1 |
| 20260505115345 | 53 | 350 | 0.0 | 2.6 | 0.00 | 0.00 | 0.00 | 74 | 1016.0 |
| 20260505114840 | 53 | 350 | 0.9 | 2.6 | 0.00 | 0.00 | 0.00 | 74 | 1016.0 |
| 20260505114341 | 54 | 24 | 0.0 | 5.2 | 0.00 | 0.00 | 0.00 | 72 | 1016.1 |
| 20260505113847 | 55 | 296 | 0.9 | 5.2 | 0.00 | 0.00 | 0.00 | 69 | 1016.2 |
| 20260505113341 | 55 | 355 | 2.6 | 7.8 | 0.00 | 0.00 | 0.00 | 73 | 1016.3 |
| 20260505112841 | 55 | 227 | 5.2 | 7.8 | 0.00 | 0.00 | 0.00 | 73 | 1016.3 |
| 20260505112339 | 53 | 276 | 0.9 | 7.0 | 0.00 | 0.00 | 0.00 | 71 | 1016.4 |
| 20260505111857 | 54 | 269 | 1.7 | 4.3 | 0.00 | 0.00 | 0.00 | 74 | 1016.5 |
| 20260505111412 | 54 | 342 | 1.7 | 5.2 | 0.00 | 0.00 | 0.00 | 71 | 1016.6 |
| 20260505110849 | 55 | 332 | 2.6 | 5.2 | 0.00 | 0.00 | 0.00 | 76 | 1016.6 |
| 20260505110351 | 54 | 350 | 2.6 | 7.0 | 0.00 | 0.00 | 0.00 | 80 | 1016.7 |
| 20260505101854 | 50 | 360 | 0.0 | 1.7 | 0.00 | 0.00 | 0.00 | 78 | 1016.8 |
| 20260505101345 | 50 | 360 | 0.0 | 3.5 | 0.00 | 0.00 | 0.00 | 79 | 1016.8 |
| 20260505100850 | 51 | 360 | 1.7 | 5.2 | 0.00 | 0.00 | 0.00 | 79 | 1016.8 |
| 20260505100347 | 51 | 22 | 3.5 | 5.2 | 0.00 | 0.00 | 0.00 | 80 | 1016.9 |
| 20260505095845 | 51 | 360 | 3.5 | 5.2 | 0.00 | 0.00 | 0.00 | 79 | 1016.8 |
| 20260505095348 | 51 | 360 | 1.7 | 5.2 | 0.00 | 0.00 | 0.00 | 78 | 1016.8 |
| 20260505094913 | 51 | 349 | 1.7 | 7.0 | 0.00 | 0.00 | 0.00 | 77 | 1016.8 |
| 20260505094348 | 51 | 346 | 3.5 | 7.0 | 0.00 | 0.00 | 0.00 | 76 | 1016.8 |
| 20260505093841 | 52 | 16 | 2.6 | 5.2 | 0.00 | 0.00 | 0.00 | 78 | 1016.8 |
| 20260505093341 | 51 | 12 | 1.7 | 5.2 | 0.00 | 0.00 | 0.00 | 78 | 1016.9 |
| 20260505092842 | 51 | 355 | 2.6 | 7.0 | 0.00 | 0.00 | 0.00 | 79 | 1016.9 |
| 20260505092355 | 51 | 343 | 3.5 | 7.0 | 0.00 | 0.00 | 0.00 | 80 | 1017.0 |
| 20260505091859 | 52 | 330 | 3.5 | 7.0 | 0.00 | 0.00 | 0.00 | 81 | 1017.0 |
| 20260505091417 | 51 | 355 | 2.6 | 5.2 | 0.00 | 0.00 | 0.00 | 81 | 1017.0 |
| 20260505090846 | 50 | 254 | 0.9 | 5.2 | 0.00 | 0.00 | 0.00 | 81 | 1017.0 |
| 20260505090353 | 50 | 355 | 1.7 | 5.2 | 0.00 | 0.00 | 0.00 | 82 | 1016.9 |
| 20260505085853 | 49 | 355 | 2.6 | 8.7 | 0.00 | 0.00 | 0.00 | 82 | 1017.0 |
| 20260505085353 | 49 | 347 | 7.0 | 8.7 | 0.00 | 0.00 | 0.00 | 83 | 1017.0 |
| 20260505084838 | 50 | 348 | 5.2 | 8.7 | 0.00 | 0.00 | 0.00 | 83 | 1017.1 |
| 20260505084339 | 50 | 355 | 5.2 | 10.4 | 0.00 | 0.00 | 0.00 | 82 | 1017.1 |
| 20260505083900 | 50 | 5 | 6.1 | 10.4 | 0.00 | 0.00 | 0.00 | 83 | 1017.1 |
| 20260505083347 | 50 | 344 | 2.6 | 7.0 | 0.00 | 0.00 | 0.00 | 82 | 1017.1 |
| 20260505082846 | 50 | 338 | 2.6 | 7.0 | 0.00 | 0.00 | 0.00 | 83 | 1017.1 |
| 20260505082341 | 50 | 346 | 4.3 | 8.7 | 0.00 | 0.00 | 0.00 | 83 | 1017.1 |
| 20260505081839 | 50 | 355 | 5.2 | 10.4 | 0.00 | 0.00 | 0.00 | 82 | 1017.0 |
| 20260505081359 | 49 | 346 | 7.8 | 10.4 | 0.00 | 0.00 | 0.00 | 83 | 1017.1 |
| 20260505080849 | 49 | 303 | 4.3 | 7.8 | 0.00 | 0.00 | 0.00 | 84 | 1017.2 |
| 20260505080405 | 49 | 340 | 4.3 | 7.0 | 0.00 | 0.00 | 0.00 | 85 | 1017.1 |
| 20260505075843 | 49 | 5 | 0.9 | 6.1 | 0.00 | 0.00 | 0.00 | 85 | 1017.1 |
| 20260505075405 | 49 | 344 | 1.7 | 7.0 | 0.00 | 0.00 | 0.00 | 85 | 1017.1 |
| 20260505074904 | 48 | 346 | 1.7 | 7.0 | 0.00 | 0.00 | 0.00 | 86 | 1017.1 |
| 20260505074420 | 48 | 348 | 1.7 | 5.2 | 0.00 | 0.00 | 0.00 | 86 | 1017.0 |
| 20260505073858 | 48 | 344 | 1.7 | 4.3 | 0.00 | 0.00 | 0.00 | 86 | 1017.0 |
| 20260505073403 | 48 | 213 | 0.9 | 2.6 | 0.00 | 0.00 | 0.00 | 86 | 1017.1 |
| 20260505072838 | 48 | 259 | 0.9 | 2.6 | 0.00 | 0.00 | 0.00 | 86 | 1017.1 |
| 20260505072341 | 47 | 344 | 0.9 | 3.5 | 0.00 | 0.00 | 0.00 | 86 | 1017.1 |
| 20260505071901 | 47 | 279 | 1.7 | 3.5 | 0.00 | 0.00 | 0.00 | 87 | 1017.1 |
| 20260505071358 | 47 | 304 | 0.9 | 2.6 | 0.00 | 0.00 | 0.00 | 87 | 1017.1 |
| 20260505070851 | 47 | 295 | 0.0 | 2.6 | 0.00 | 0.00 | 0.00 | 87 | 1017.1 |
| 20260505070350 | 47 | 257 | 0.9 | 3.5 | 0.00 | 0.00 | 0.00 | 88 | 1017.1 |
| 20260505065837 | 47 | 318 | 0.9 | 3.5 | 0.00 | 0.00 | 0.00 | 88 | 1017.1 |
| 20260505065353 | 47 | 309 | 0.9 | 3.5 | 0.00 | 0.00 | 0.00 | 88 | 1017.1 |
| 20260505064910 | 46 | 287 | 0.0 | 3.5 | 0.00 | 0.00 | 0.00 | 88 | 1017.1 |
| 20260505064348 | 46 | 273 | 0.9 | 5.2 | 0.00 | 0.00 | 0.00 | 88 | 1017.1 |
| 20260505063851 | 46 | 292 | 2.6 | 5.2 | 0.00 | 0.00 | 0.00 | 88 | 1017.1 |
| 20260505063408 | 46 | 263 | 1.7 | 4.3 | 0.00 | 0.00 | 0.00 | 88 | 1017.2 |
| 20260505062904 | 46 | 286 | 1.7 | 4.3 | 0.00 | 0.00 | 0.00 | 88 | 1017.1 |
| 20260505062340 | 45 | 297 | 1.7 | 6.1 | 0.00 | 0.00 | 0.00 | 89 | 1017.1 |
| 20260505061839 | 45 | 333 | 0.9 | 6.1 | 0.00 | 0.00 | 0.00 | 89 | 1017.1 |
| 20260505061359 | 45 | 269 | 1.7 | 4.3 | 0.00 | 0.00 | 0.00 | 89 | 1017.1 |
| 20260505060844 | 45 | 279 | 1.7 | 3.5 | 0.00 | 0.00 | 0.00 | 89 | 1017.2 |
| 20260505060342 | 45 | 272 | 0.9 | 3.5 | 0.00 | 0.00 | 0.00 | 89 | 1017.1 |
| 20260505055853 | 45 | 282 | 1.7 | 3.5 | 0.00 | 0.00 | 0.00 | 89 | 1017.0 |
| 20260505055353 | 45 | 253 | 0.9 | 3.5 | 0.00 | 0.00 | 0.00 | 89 | 1016.9 |
| 20260505054843 | 44 | 264 | 1.7 | 2.6 | 0.00 | 0.00 | 0.00 | 89 | 1016.9 |
| 20260505054345 | 44 | 320 | 0.9 | 3.5 | 0.00 | 0.00 | 0.00 | 89 | 1016.9 |
| 20260505053839 | 44 | 292 | 0.9 | 4.3 | 0.00 | 0.00 | 0.00 | 89 | 1016.9 |
| 20260505053339 | 44 | 249 | 2.6 | 5.2 | 0.00 | 0.00 | 0.00 | 89 | 1016.9 |
| 20260505052858 | 44 | 340 | 2.6 | 4.3 | 0.00 | 0.00 | 0.00 | 88 | 1016.9 |
| 20260505052355 | 44 | 269 | 2.6 | 4.3 | 0.00 | 0.00 | 0.00 | 89 | 1016.9 |